Time,TemperatureF,DewpointF,PressureIn,WindDirection,WindDirectionDegrees,WindSpeedMPH,WindSpeedGustMPH,Humidity,HourlyPrecipIn,Conditions,Clouds,dailyrainin,SoftwareType,DateUTC
2013-09-13 00:00:00,78.0,0.0,29.86,WNW,299,13.0,16.0,30,-99.99,,,-99.99,,2013-09-13 07:00:00,
2013-09-13 00:08:00,78.0,0.0,29.86,WNW,294,12.0,16.0,29,-99.99,,,-99.99,,2013-09-13 07:08:00,
2013-09-13 00:16:00,78.0,0.0,29.86,WNW,289,10.0,17.0,29,-99.99,,,-99.99,,2013-09-13 07:16:00,
2013-09-13 00:24:00,77.0,0.0,29.86,WNW,285,8.0,14.0,29,-99.99,,,-99.99,,2013-09-13 07:24:00,
2013-09-13 00:32:00,77.0,0.0,29.87,WNW,297,13.0,13.0,30,-99.99,,,-99.99,,2013-09-13 07:32:00,
2013-09-13 00:40:00,77.0,0.0,29.87,WNW,298,7.0,13.0,30,-99.99,,,-99.99,,2013-09-13 07:40:00,
2013-09-13 00:48:00,77.0,0.0,29.87,West,264,9.0,10.0,33,-99.99,,,-99.99,,2013-09-13 07:48:00,
2013-09-13 00:56:00,77.0,0.0,29.87,WNW,296,6.0,10.0,32,-99.99,,,-99.99,,2013-09-13 07:56:00,
2013-09-13 01:04:00,76.0,0.0,29.87,WNW,284,8.0,9.0,30,-99.99,,,-99.99,,2013-09-13 08:04:00,
2013-09-13 01:12:00,75.0,0.0,29.87,WNW,290,8.0,10.0,33,-99.99,,,-99.99,,2013-09-13 08:12:00,
2013-09-13 01:20:00,75.0,0.0,29.87,NW,304,8.0,10.0,32,-99.99,,,-99.99,,2013-09-13 08:20:00,
2013-09-13 01:28:00,74.0,0.0,29.87,West,276,7.0,10.0,31,-99.99,,,-99.99,,2013-09-13 08:28:00,
2013-09-13 01:36:00,74.0,0.0,29.87,WNW,300,6.0,9.0,34,-99.99,,,-99.99,,2013-09-13 08:36:00,
2013-09-13 01:44:00,74.0,0.0,29.87,West,275,7.0,8.0,32,-99.99,,,-99.99,,2013-09-13 08:44:00,
2013-09-13 01:52:00,73.0,0.0,29.87,NW,309,7.0,9.0,36,-99.99,,,-99.99,,2013-09-13 08:52:00,
2013-09-13 02:00:00,73.0,0.0,29.86,WNW,302,6.0,9.0,34,-99.99,,,-99.99,,2013-09-13 09:00:00,
2013-09-13 02:08:00,73.0,0.0,29.87,WNW,295,5.0,9.0,33,-99.99,,,-99.99,,2013-09-13 09:08:00,
2013-09-13 02:16:00,72.0,0.0,29.87,WNW,301,5.0,6.0,33,-99.99,,,-99.99,,2013-09-13 09:16:00,
2013-09-13 02:24:00,72.0,0.0,29.86,WNW,297,6.0,8.0,33,-99.99,,,-99.99,,2013-09-13 09:24:00,
2013-09-13 02:32:00,72.0,0.0,29.87,NW,309,3.0,7.0,35,-99.99,,,-99.99,,2013-09-13 09:32:00,
2013-09-13 02:40:00,71.0,0.0,29.87,WNW,303,7.0,7.0,36,-99.99,,,-99.99,,2013-09-13 09:40:00,
2013-09-13 02:48:00,71.0,0.0,29.87,NW,308,7.0,8.0,34,-99.99,,,-99.99,,2013-09-13 09:48:00,
2013-09-13 02:56:00,71.0,0.0,29.87,NW,307,5.0,7.0,35,-99.99,,,-99.99,,2013-09-13 09:56:00,
2013-09-13 03:04:00,71.0,0.0,29.86,WNW,282,7.0,8.0,36,-99.99,,,-99.99,,2013-09-13 10:04:00,
2013-09-13 03:12:00,71.0,0.0,29.86,NW,308,5.0,7.0,35,-99.99,,,-99.99,,2013-09-13 10:12:00,
2013-09-13 03:20:00,71.0,0.0,29.86,NW,313,5.0,7.0,35,-99.99,,,-99.99,,2013-09-13 10:20:00,
2013-09-13 03:28:00,71.0,0.0,29.86,NW,307,7.0,7.0,34,-99.99,,,-99.99,,2013-09-13 10:28:00,
2013-09-13 03:36:00,71.0,0.0,29.86,NW,310,6.0,9.0,38,-99.99,,,-99.99,,2013-09-13 10:36:00,
2013-09-13 03:44:00,70.0,0.0,29.86,NW,305,2.0,9.0,35,-99.99,,,-99.99,,2013-09-13 10:44:00,
2013-09-13 03:52:00,71.0,0.0,29.86,NW,309,6.0,8.0,34,-99.99,,,-99.99,,2013-09-13 10:52:00,
2013-09-13 04:00:00,72.0,0.0,29.86,NW,312,5.0,7.0,33,-99.99,,,-99.99,,2013-09-13 11:00:00,
2013-09-13 04:08:00,71.0,0.0,29.87,WNW,293,6.0,8.0,37,-99.99,,,-99.99,,2013-09-13 11:08:00,
2013-09-13 04:16:00,70.0,0.0,29.86,NW,309,5.0,8.0,37,-99.99,,,-99.99,,2013-09-13 11:16:00,
2013-09-13 04:24:00,70.0,0.0,29.86,NW,310,5.0,6.0,35,-99.99,,,-99.99,,2013-09-13 11:24:00,
2013-09-13 04:32:00,70.0,0.0,29.86,NW,306,6.0,9.0,36,-99.99,,,-99.99,,2013-09-13 11:32:00,
2013-09-13 04:40:00,70.0,0.0,29.85,WNW,300,12.0,14.0,36,-99.99,,,-99.99,,2013-09-13 11:40:00,
2013-09-13 04:48:00,70.0,0.0,29.86,WNW,292,8.0,14.0,35,-99.99,,,-99.99,,2013-09-13 11:48:00,
2013-09-13 04:56:00,70.0,0.0,29.86,WNW,302,3.0,10.0,35,-99.99,,,-99.99,,2013-09-13 11:56:00,
2013-09-13 05:04:00,70.0,0.0,29.86,NW,305,6.0,8.0,37,-99.99,,,-99.99,,2013-09-13 12:04:00,
2013-09-13 05:12:00,70.0,0.0,29.86,NW,306,8.0,10.0,37,-99.99,,,-99.99,,2013-09-13 12:12:00,
2013-09-13 05:20:00,70.0,0.0,29.86,NW,304,5.0,9.0,37,-99.99,,,-99.99,,2013-09-13 12:20:00,
2013-09-13 05:28:00,70.0,0.0,29.86,NW,305,1.0,7.0,37,-99.99,,,-99.99,,2013-09-13 12:28:00,
2013-09-13 05:36:00,69.0,0.0,29.86,WNW,302,3.0,5.0,36,-99.99,,,-99.99,,2013-09-13 12:36:00,
2013-09-13 05:44:00,68.0,0.0,29.86,NW,306,3.0,5.0,37,-99.99,,,-99.99,,2013-09-13 12:44:00,
2013-09-13 05:52:00,67.0,0.0,29.86,NW,304,5.0,6.0,39,-99.99,,,-99.99,,2013-09-13 12:52:00,
2013-09-13 06:00:00,67.0,0.0,29.86,NW,306,5.0,6.0,41,-99.99,,,-99.99,,2013-09-13 13:00:00,
2013-09-13 06:08:00,67.0,0.0,29.86,NW,305,5.0,6.0,40,-99.99,,,-99.99,,2013-09-13 13:08:00,
2013-09-13 06:16:00,67.0,0.0,29.86,NW,310,5.0,5.0,41,-99.99,,,-99.99,,2013-09-13 13:16:00,
2013-09-13 06:24:00,67.0,0.0,29.86,WNW,302,3.0,5.0,42,-99.99,,,-99.99,,2013-09-13 13:24:00,
2013-09-13 06:32:00,67.0,0.0,29.87,NW,308,3.0,5.0,41,-99.99,,,-99.99,,2013-09-13 13:32:00,
2013-09-13 06:40:00,67.0,0.0,29.87,NW,315,2.0,5.0,40,-99.99,,,-99.99,,2013-09-13 13:40:00,
2013-09-13 06:48:00,68.0,0.0,29.87,NW,304,3.0,5.0,37,-99.99,,,-99.99,,2013-09-13 13:48:00,
2013-09-13 06:56:00,67.0,0.0,29.87,NW,305,2.0,5.0,41,-99.99,,,-99.99,,2013-09-13 13:56:00,
2013-09-13 07:04:00,68.0,0.0,29.87,WNW,303,2.0,3.0,38,-99.99,,,-99.99,,2013-09-13 14:04:00,
2013-09-13 07:12:00,69.0,0.0,29.87,NW,310,2.0,3.0,37,-99.99,,,-99.99,,2013-09-13 14:12:00,
2013-09-13 07:20:00,70.0,0.0,29.88,NW,310,0.0,2.0,39,-99.99,,,-99.99,,2013-09-13 14:20:00,
2013-09-13 07:28:00,70.0,0.0,29.88,NW,309,1.0,2.0,38,-99.99,,,-99.99,,2013-09-13 14:28:00,
2013-09-13 07:36:00,71.0,0.0,29.88,WNW,301,5.0,5.0,34,-99.99,,,-99.99,,2013-09-13 14:36:00,
2013-09-13 07:44:00,73.0,0.0,29.88,WNW,282,2.0,5.0,34,-99.99,,,-99.99,,2013-09-13 14:44:00,
2013-09-13 07:52:00,75.0,0.0,29.88,WNW,303,2.0,3.0,31,-99.99,,,-99.99,,2013-09-13 14:52:00,
2013-09-13 08:00:00,76.0,0.0,29.87,WNW,290,3.0,6.0,34,-99.99,,,-99.99,,2013-09-13 15:00:00,
2013-09-13 08:08:00,77.0,0.0,29.87,WNW,300,2.0,7.0,28,-99.99,,,-99.99,,2013-09-13 15:08:00,
2013-09-13 08:16:00,78.0,0.0,29.88,WNW,297,5.0,7.0,29,-99.99,,,-99.99,,2013-09-13 15:16:00,
2013-09-13 08:24:00,78.0,0.0,29.88,WNW,301,6.0,7.0,29,-99.99,,,-99.99,,2013-09-13 15:24:00,
2013-09-13 08:32:00,79.0,0.0,29.87,WNW,302,3.0,7.0,27,-99.99,,,-99.99,,2013-09-13 15:32:00,
2013-09-13 08:40:00,81.0,0.0,29.88,WNW,302,2.0,6.0,28,-99.99,,,-99.99,,2013-09-13 15:40:00,
2013-09-13 08:48:00,82.0,0.0,29.88,WNW,294,3.0,5.0,25,-99.99,,,-99.99,,2013-09-13 15:48:00,
2013-09-13 08:56:00,83.0,0.0,29.88,NW,305,0.0,5.0,27,-99.99,,,-99.99,,2013-09-13 15:56:00,
2013-09-13 09:04:00,83.0,0.0,29.88,NW,310,0.0,5.0,27,-99.99,,,-99.99,,2013-09-13 16:04:00,
2013-09-13 09:12:00,84.0,0.0,29.88,NW,309,0.0,3.0,28,-99.99,,,-99.99,,2013-09-13 16:12:00,
2013-09-13 09:20:00,84.0,0.0,29.88,WNW,302,0.0,3.0,26,-99.99,,,-99.99,,2013-09-13 16:20:00,
2013-09-13 09:28:00,85.0,0.0,29.88,SW,225,3.0,3.0,24,-99.99,,,-99.99,,2013-09-13 16:28:00,
2013-09-13 09:36:00,85.0,0.0,29.88,SW,220,1.0,5.0,26,-99.99,,,-99.99,,2013-09-13 16:36:00,
2013-09-13 09:44:00,84.0,0.0,29.88,South,170,1.0,5.0,25,-99.99,,,-99.99,,2013-09-13 16:44:00,
2013-09-13 09:52:00,85.0,0.0,29.88,SE,139,0.0,5.0,24,-99.99,,,-99.99,,2013-09-13 16:52:00,
2013-09-13 10:00:00,86.0,0.0,29.88,SE,143,0.0,3.0,28,-99.99,,,-99.99,,2013-09-13 17:00:00,
2013-09-13 10:08:00,87.0,0.0,29.88,ESE,121,0.0,2.0,25,-99.99,,,-99.99,,2013-09-13 17:08:00,
2013-09-13 10:16:00,89.0,0.0,29.87,NW,316,1.0,3.0,26,-99.99,,,-99.99,,2013-09-13 17:16:00,
2013-09-13 10:24:00,89.0,0.0,29.87,NW,318,2.0,3.0,25,-99.99,,,-99.99,,2013-09-13 17:24:00,
2013-09-13 10:32:00,88.0,0.0,29.87,SSW,206,3.0,3.0,25,-99.99,,,-99.99,,2013-09-13 17:32:00,
2013-09-13 10:40:00,86.0,0.0,29.87,SSE,154,0.0,5.0,26,-99.99,,,-99.99,,2013-09-13 17:40:00,
2013-09-13 10:48:00,88.0,0.0,29.87,West,276,2.0,6.0,25,-99.99,,,-99.99,,2013-09-13 17:48:00,
2013-09-13 10:56:00,89.0,0.0,29.86,West,279,5.0,6.0,27,-99.99,,,-99.99,,2013-09-13 17:56:00,
2013-09-13 11:04:00,89.0,0.0,29.86,West,275,6.0,6.0,24,-99.99,,,-99.99,,2013-09-13 18:04:00,
2013-09-13 11:12:00,88.0,0.0,29.86,North,2,1.0,7.0,26,-99.99,,,-99.99,,2013-09-13 18:12:00,
2013-09-13 11:20:00,88.0,0.0,29.85,SSE,167,3.0,8.0,24,-99.99,,,-99.99,,2013-09-13 18:20:00,
2013-09-13 11:28:00,88.0,0.0,29.85,WSW,242,5.0,9.0,25,-99.99,,,-99.99,,2013-09-13 18:28:00,
2013-09-13 11:36:00,90.0,0.0,29.85,SSE,165,0.0,7.0,25,-99.99,,,-99.99,,2013-09-13 18:36:00,
2013-09-13 11:44:00,91.0,0.0,29.84,WSW,240,2.0,7.0,24,-99.99,,,-99.99,,2013-09-13 18:44:00,
2013-09-13 11:52:00,90.0,0.0,29.84,South,191,7.0,9.0,23,-99.99,,,-99.99,,2013-09-13 18:52:00,
2013-09-13 12:00:00,90.0,0.0,29.84,SSE,162,3.0,9.0,25,-99.99,,,-99.99,,2013-09-13 19:00:00,
2013-09-13 12:08:00,91.0,0.0,29.83,West,273,6.0,8.0,24,-99.99,,,-99.99,,2013-09-13 19:08:00,
2013-09-13 12:16:00,92.0,0.0,29.83,WNW,282,5.0,7.0,23,-99.99,,,-99.99,,2013-09-13 19:16:00,
2013-09-13 12:24:00,92.0,0.0,29.82,WNW,295,3.0,8.0,23,-99.99,,,-99.99,,2013-09-13 19:24:00,
2013-09-13 12:32:00,93.0,0.0,29.82,NW,320,1.0,5.0,21,-99.99,,,-99.99,,2013-09-13 19:32:00,
2013-09-13 12:40:00,94.0,0.0,29.82,West,261,10.0,12.0,20,-99.99,,,-99.99,,2013-09-13 19:40:00,
2013-09-13 12:48:00,93.0,0.0,29.82,WSW,253,5.0,14.0,23,-99.99,,,-99.99,,2013-09-13 19:48:00,
2013-09-13 12:56:00,93.0,0.0,29.81,WSW,243,10.0,17.0,20,-99.99,,,-99.99,,2013-09-13 19:56:00,
2013-09-13 13:04:00,92.0,0.0,29.81,SSW,212,5.0,14.0,20,-99.99,,,-99.99,,2013-09-13 20:04:00,
2013-09-13 13:12:00,93.0,0.0,29.80,SE,137,5.0,12.0,22,-99.99,,,-99.99,,2013-09-13 20:12:00,
2013-09-13 13:20:00,94.0,0.0,29.80,NW,321,1.0,7.0,21,-99.99,,,-99.99,,2013-09-13 20:20:00,
2013-09-13 13:28:00,94.0,0.0,29.79,SE,146,6.0,9.0,20,-99.99,,,-99.99,,2013-09-13 20:28:00,
2013-09-13 13:36:00,95.0,0.0,29.79,WSW,249,3.0,8.0,23,-99.99,,,-99.99,,2013-09-13 20:36:00,
2013-09-13 13:44:00,94.0,0.0,29.79,SSW,194,8.0,10.0,19,-99.99,,,-99.99,,2013-09-13 20:44:00,
2013-09-13 13:52:00,94.0,0.0,29.79,NW,319,0.0,15.0,19,-99.99,,,-99.99,,2013-09-13 20:52:00,
2013-09-13 14:00:00,95.0,0.0,29.78,ENE,62,5.0,10.0,21,-99.99,,,-99.99,,2013-09-13 21:00:00,
2013-09-13 14:08:00,94.0,0.0,29.77,NW,321,1.0,7.0,19,-99.99,,,-99.99,,2013-09-13 21:08:00,
2013-09-13 14:16:00,94.0,0.0,29.77,SW,234,1.0,7.0,18,-99.99,,,-99.99,,2013-09-13 21:16:00,
2013-09-13 14:24:00,95.0,0.0,29.77,NW,318,2.0,8.0,22,-99.99,,,-99.99,,2013-09-13 21:24:00,
2013-09-13 14:32:00,96.0,0.0,29.77,WNW,300,0.0,7.0,20,-99.99,,,-99.99,,2013-09-13 21:32:00,
2013-09-13 14:40:00,95.0,0.0,29.76,WNW,296,6.0,12.0,20,-99.99,,,-99.99,,2013-09-13 21:40:00,
2013-09-13 14:48:00,95.0,0.0,29.76,WNW,292,9.0,14.0,17,-99.99,,,-99.99,,2013-09-13 21:48:00,
2013-09-13 14:56:00,95.0,0.0,29.76,WNW,300,5.0,12.0,20,-99.99,,,-99.99,,2013-09-13 21:56:00,
2013-09-13 15:04:00,95.0,0.0,29.75,WNW,297,6.0,8.0,17,-99.99,,,-99.99,,2013-09-13 22:04:00,
2013-09-13 15:12:00,95.0,0.0,29.75,WNW,300,3.0,12.0,17,-99.99,,,-99.99,,2013-09-13 22:12:00,
2013-09-13 15:20:00,94.0,0.0,29.75,WSW,251,8.0,10.0,19,-99.99,,,-99.99,,2013-09-13 22:20:00,
2013-09-13 15:28:00,94.0,0.0,29.75,WSW,249,7.0,10.0,19,-99.99,,,-99.99,,2013-09-13 22:28:00,
2013-09-13 15:36:00,95.0,0.0,29.74,WSW,257,8.0,8.0,20,-99.99,,,-99.99,,2013-09-13 22:36:00,
2013-09-13 15:44:00,95.0,0.0,29.74,SSW,205,6.0,9.0,16,-99.99,,,-99.99,,2013-09-13 22:44:00,
2013-09-13 15:52:00,95.0,0.0,29.74,SSW,199,8.0,12.0,16,-99.99,,,-99.99,,2013-09-13 22:52:00,
2013-09-13 16:00:00,94.0,0.0,29.73,SW,229,0.0,10.0,18,-99.99,,,-99.99,,2013-09-13 23:00:00,
2013-09-13 16:08:00,95.0,0.0,29.73,WNW,287,3.0,7.0,18,-99.99,,,-99.99,,2013-09-13 23:08:00,
2013-09-13 16:16:00,94.0,0.0,29.73,WNW,285,2.0,7.0,16,-99.99,,,-99.99,,2013-09-13 23:16:00,
2013-09-13 16:24:00,94.0,0.0,29.73,West,264,7.0,9.0,18,-99.99,,,-99.99,,2013-09-13 23:24:00,
2013-09-13 16:32:00,94.0,0.0,29.73,SSW,201,7.0,9.0,18,-99.99,,,-99.99,,2013-09-13 23:32:00,
2013-09-13 16:40:00,95.0,0.0,29.72,SSE,159,3.0,7.0,16,-99.99,,,-99.99,,2013-09-13 23:40:00,
2013-09-13 16:48:00,94.0,0.0,29.72,WSW,257,1.0,6.0,18,-99.99,,,-99.99,,2013-09-13 23:48:00,
2013-09-13 16:56:00,94.0,0.0,29.72,West,280,6.0,12.0,18,-99.99,,,-99.99,,2013-09-13 23:56:00,
2013-09-13 17:04:00,94.0,0.0,29.72,West,270,2.0,12.0,17,-99.99,,,-99.99,,2013-09-14 00:04:00,
2013-09-13 17:12:00,94.0,0.0,29.72,West,277,2.0,6.0,16,-99.99,,,-99.99,,2013-09-14 00:12:00,
2013-09-13 17:20:00,94.0,0.0,29.72,WNW,300,2.0,8.0,18,-99.99,,,-99.99,,2013-09-14 00:20:00,
2013-09-13 17:28:00,94.0,0.0,29.71,WSW,245,1.0,3.0,21,-99.99,,,-99.99,,2013-09-14 00:28:00,
2013-09-13 17:36:00,94.0,0.0,29.71,SSW,212,1.0,9.0,16,-99.99,,,-99.99,,2013-09-14 00:36:00,
2013-09-13 17:44:00,94.0,0.0,29.71,SSW,213,0.0,6.0,17,-99.99,,,-99.99,,2013-09-14 00:44:00,
2013-09-13 17:52:00,94.0,0.0,29.71,WNW,300,3.0,8.0,20,-99.99,,,-99.99,,2013-09-14 00:52:00,
2013-09-13 18:00:00,94.0,0.0,29.71,WNW,294,2.0,8.0,16,-99.99,,,-99.99,,2013-09-14 01:00:00,
2013-09-13 18:08:00,94.0,0.0,29.70,WNW,295,0.0,3.0,17,-99.99,,,-99.99,,2013-09-14 01:08:00,
2013-09-13 18:16:00,94.0,0.0,29.70,NW,306,8.0,8.0,16,-99.99,,,-99.99,,2013-09-14 01:16:00,
2013-09-13 18:24:00,94.0,0.0,29.70,WNW,303,0.0,8.0,16,-99.99,,,-99.99,,2013-09-14 01:24:00,
2013-09-13 18:32:00,93.0,0.0,29.70,NW,307,3.0,6.0,16,-99.99,,,-99.99,,2013-09-14 01:32:00,
2013-09-13 18:40:00,93.0,0.0,29.70,NW,305,1.0,3.0,16,-99.99,,,-99.99,,2013-09-14 01:40:00,
2013-09-13 18:48:00,93.0,0.0,29.70,NW,304,0.0,2.0,16,-99.99,,,-99.99,,2013-09-14 01:48:00,
2013-09-13 18:56:00,92.0,0.0,29.70,WNW,297,0.0,0.0,16,-99.99,,,-99.99,,2013-09-14 01:56:00,
2013-09-13 19:04:00,92.0,0.0,29.70,WSW,251,3.0,5.0,17,-99.99,,,-99.99,,2013-09-14 02:04:00,
2013-09-13 19:12:00,91.0,0.0,29.71,West,260,3.0,3.0,18,-99.99,,,-99.99,,2013-09-14 02:12:00,
2013-09-13 19:20:00,90.0,0.0,29.71,West,261,2.0,3.0,18,-99.99,,,-99.99,,2013-09-14 02:20:00,
2013-09-13 19:28:00,90.0,0.0,29.71,West,260,2.0,3.0,17,-99.99,,,-99.99,,2013-09-14 02:28:00,
2013-09-13 19:36:00,89.0,0.0,29.71,West,270,3.0,5.0,21,-99.99,,,-99.99,,2013-09-14 02:36:00,
2013-09-13 19:44:00,89.0,0.0,29.71,West,270,3.0,5.0,19,-99.99,,,-99.99,,2013-09-14 02:44:00,
2013-09-13 19:52:00,88.0,0.0,29.72,WNW,283,3.0,3.0,18,-99.99,,,-99.99,,2013-09-14 02:52:00,
2013-09-13 20:00:00,87.0,0.0,29.72,WNW,285,3.0,5.0,18,-99.99,,,-99.99,,2013-09-14 03:00:00,
2013-09-13 20:08:00,86.0,0.0,29.72,NW,305,3.0,5.0,20,-99.99,,,-99.99,,2013-09-14 03:08:00,
2013-09-13 20:16:00,86.0,0.0,29.73,NW,315,5.0,7.0,19,-99.99,,,-99.99,,2013-09-14 03:16:00,
2013-09-13 20:24:00,86.0,0.0,29.73,NW,309,3.0,8.0,20,-99.99,,,-99.99,,2013-09-14 03:24:00,
2013-09-13 20:32:00,88.0,0.0,29.74,NW,304,6.0,7.0,23,-99.99,,,-99.99,,2013-09-14 03:32:00,
2013-09-13 20:40:00,86.0,0.0,29.74,NW,310,2.0,6.0,24,-99.99,,,-99.99,,2013-09-14 03:40:00,
2013-09-13 20:48:00,86.0,0.0,29.74,NW,313,3.0,7.0,25,-99.99,,,-99.99,,2013-09-14 03:48:00,
2013-09-13 20:56:00,85.0,0.0,29.75,NW,308,5.0,6.0,23,-99.99,,,-99.99,,2013-09-14 03:56:00,
2013-09-13 21:04:00,85.0,0.0,29.75,NW,305,5.0,6.0,24,-99.99,,,-99.99,,2013-09-14 04:04:00,
2013-09-13 21:12:00,85.0,0.0,29.75,NW,306,3.0,6.0,22,-99.99,,,-99.99,,2013-09-14 04:12:00,
2013-09-13 21:16:00,84.0,0.0,29.75,NW,304,5.0,6.0,22,-99.99,,,-99.99,,2013-09-14 04:16:00,
2013-09-13 21:24:00,84.0,0.0,29.75,NW,308,1.0,6.0,26,-99.99,,,-99.99,,2013-09-14 04:24:00,
2013-09-13 21:32:00,83.0,0.0,29.75,SW,226,1.0,3.0,25,-99.99,,,-99.99,,2013-09-14 04:32:00,
2013-09-13 21:40:00,83.0,0.0,29.75,SW,226,0.0,2.0,25,-99.99,,,-99.99,,2013-09-14 04:40:00,
2013-09-13 21:48:00,83.0,0.0,29.75,SW,226,0.0,1.0,22,-99.99,,,-99.99,,2013-09-14 04:48:00,
2013-09-13 21:52:00,84.0,0.0,29.75,SW,226,2.0,2.0,24,-99.99,,,-99.99,,2013-09-14 04:52:00,
2013-09-13 22:00:00,83.0,0.0,29.75,NW,314,2.0,3.0,23,-99.99,,,-99.99,,2013-09-14 05:00:00,
2013-09-13 22:08:00,82.0,0.0,29.75,NW,315,2.0,5.0,24,-99.99,,,-99.99,,2013-09-14 05:08:00,
2013-09-13 22:16:00,82.0,0.0,29.76,NW,315,3.0,5.0,26,-99.99,,,-99.99,,2013-09-14 05:16:00,
2013-09-13 22:24:00,82.0,0.0,29.75,NW,314,3.0,5.0,28,-99.99,,,-99.99,,2013-09-14 05:24:00,
2013-09-13 22:32:00,82.0,0.0,29.75,NW,309,6.0,7.0,25,-99.99,,,-99.99,,2013-09-14 05:32:00,
2013-09-13 22:40:00,81.0,0.0,29.76,NW,310,5.0,6.0,29,-99.99,,,-99.99,,2013-09-14 05:40:00,
2013-09-13 22:48:00,81.0,0.0,29.76,NW,309,3.0,5.0,27,-99.99,,,-99.99,,2013-09-14 05:48:00,
2013-09-13 22:56:00,80.0,0.0,29.76,NW,308,2.0,3.0,25,-99.99,,,-99.99,,2013-09-14 05:56:00,
2013-09-13 23:04:00,80.0,0.0,29.76,NW,310,1.0,2.0,28,-99.99,,,-99.99,,2013-09-14 06:04:00,
2013-09-13 23:12:00,79.0,0.0,29.76,WNW,300,3.0,3.0,29,-99.99,,,-99.99,,2013-09-14 06:12:00,
2013-09-13 23:20:00,79.0,0.0,29.76,NW,304,6.0,8.0,29,-99.99,,,-99.99,,2013-09-14 06:20:00,
2013-09-13 23:28:00,77.0,0.0,29.76,NW,304,7.0,7.0,30,-99.99,,,-99.99,,2013-09-14 06:28:00,
2013-09-13 23:36:00,77.0,0.0,29.76,WNW,297,6.0,7.0,30,-99.99,,,-99.99,,2013-09-14 06:36:00,
2013-09-13 23:44:00,76.0,0.0,29.76,NW,305,5.0,8.0,30,-99.99,,,-99.99,,2013-09-14 06:44:00,
2013-09-13 23:52:00,76.0,0.0,29.76,NW,312,5.0,7.0,33,-99.99,,,-99.99,,2013-09-14 06:52:00,